Weather History for McCall, ID

Change the Weather History Date:

Wednesday, September 21, 2011

  Actual Average Record
Temperature  
Mean Temperature 56 °F 48 °F  
Max Temperature 77 °F 65 °F 84 °F (1936)
Min Temperature 35 °F 32 °F 18 °F (1993)
Degree Days  
Heating Degree Days 9 17  
Month to date heating degree days 130 270  
Since 1 July heating degree days 284 598  
Cooling Degree Days 0 0  
Month to date cooling degree days 2 0  
Year to date cooling degree days 56 25  
Growing Degree Days 7 (Base 50)    
Moisture  
Dew Point 33 °F    
Average Humidity 48    
Maximum Humidity 82    
Minimum Humidity 14    
Precipitation  
Precipitation 0.00 in 0.03 in 1.26 in (1984)
Month to date precipitation 0.43 0.59  
Year to date precipitation 19.17 13.63  
Sea Level Pressure  
Sea Level Pressure 30.13 in    
Wind  
Wind Speed 2 mph (NW)    
Max Wind Speed 12 mph    
Max Gust Speed 15 mph    
Visibility 10 miles    
Events      
T = Trace of Precipitation, MM = Missing Value Source: NWS Daily Summary

Daily Weather History Graph

Daily Weather History Graph

Search for Another Location

Airport:

Trip Planner

Search our weather history database for the weather conditions in past years. The results will help you decide how hot, cold, wet, or windy it might be!

Date:

Astronomy

Sep. 21, 2011 Rise Set
Actual Time 7:30 AM MDT 7:44 PM MDT
Civil Twilight 7:00 AM MDT 8:13 PM MDT
Nautical Twilight 6:26 AM MDT 8:47 PM MDT
Astronomical Twilight 5:50 AM MDT 9:22 PM MDT
Moon 12:39 AM MDT (9/21) 4:11 PM MDT (9/21)
Length of Visible Light 13h 12m
Length of Day
12h 14m
Last Quarter, 38% of the Moon is Illuminated
Sep 21
Last Quarter
Sep 27
New
Oct 3
First Quarter
Oct 11
Full
Oct 19
Last Quarter

Hourly Weather History & Observations

Time (MDT) Temp. Dew Point Humidity Pressure Visibility Wind Dir Wind Speed Gust Speed Precip Events Conditions
12:51 AM 46.9 °F 37.0 °F 68% 30.11 in 10.0 mi Calm Calm - N/A   Clear
1:51 AM 42.1 °F 36.0 °F 79% 30.11 in 10.0 mi Calm Calm - N/A   Clear
2:51 AM 41.0 °F 34.0 °F 76% 30.11 in 10.0 mi Calm Calm - N/A   Clear
3:51 AM 39.9 °F 33.1 °F 77% 30.11 in 10.0 mi Calm Calm - N/A   Clear
4:51 AM 39.9 °F 33.1 °F 77% 30.11 in 10.0 mi Calm Calm - N/A   Clear
5:51 AM 37.0 °F 32.0 °F 82% 30.12 in 10.0 mi Calm Calm - N/A   Clear
6:51 AM 37.0 °F 32.0 °F 82% 30.13 in 10.0 mi Calm Calm - N/A   Clear
7:51 AM 37.0 °F 32.0 °F 82% 30.15 in 10.0 mi Calm Calm - N/A   Clear
8:51 AM 42.1 °F 35.1 °F 76% 30.18 in 10.0 mi Calm Calm - N/A   Clear
9:51 AM 48.9 °F 37.9 °F 66% 30.17 in 10.0 mi Calm Calm - N/A   Clear
10:51 AM 55.0 °F 39.0 °F 55% 30.17 in 10.0 mi Calm Calm - N/A   Clear
11:51 AM 61.0 °F 36.0 °F 39% 30.15 in 10.0 mi Calm Calm - N/A   Clear
12:51 PM 66.0 °F 30.9 °F 27% 30.13 in 10.0 mi Calm Calm - N/A   Clear
1:51 PM 72.0 °F 30.9 °F 22% 30.12 in 10.0 mi WSW 3.5 mph - N/A   Clear
2:51 PM 73.9 °F 32.0 °F 21% 30.10 in 10.0 mi Calm Calm - N/A   Clear
4:51 PM 77.0 °F 25.0 °F 15% 30.07 in 10.0 mi WNW 8.1 mph - N/A   Clear
5:51 PM 73.9 °F 26.1 °F 17% 30.08 in 10.0 mi Variable 6.9 mph - N/A   Clear
7:51 PM 68.0 °F 28.0 °F 22% 30.10 in 10.0 mi Calm Calm - N/A   Clear
8:51 PM 57.9 °F 32.0 °F 37% 30.13 in 10.0 mi Calm Calm - N/A   Clear
9:51 PM 55.0 °F 33.1 °F 43% 30.14 in 10.0 mi NNW 3.5 mph - N/A   Clear
10:51 PM 54.0 °F 37.9 °F 55% 30.12 in 10.0 mi North 3.5 mph - N/A   Clear
11:51 PM 46.9 °F 34.0 °F 61% 30.14 in 10.0 mi Calm Calm - N/A   Clear